Time,TemperatureF,DewpointF,PressureIn,WindDirection,WindDirectionDegrees,WindSpeedMPH,WindSpeedGustMPH,Humidity,HourlyPrecipIn,Conditions,Clouds,dailyrainin,SoftwareType,DateUTC
2013-10-12 00:01:00,48.9,47.0,29.31,WSW,247,2.0,4.0,95,0.00,,,0.00,Rainwise IP-100,2013-10-12 04:01:00,
2013-10-12 00:06:00,48.8,48.0,29.31,SW,225,3.0,4.0,96,0.00,,,0.00,Rainwise IP-100,2013-10-12 04:06:00,
2013-10-12 00:11:00,48.3,47.0,29.31,SW,225,4.0,4.0,96,0.00,,,0.00,Rainwise IP-100,2013-10-12 04:11:00,
2013-10-12 00:16:00,48.1,47.0,29.31,WSW,247,2.0,4.0,96,0.00,,,0.00,Rainwise IP-100,2013-10-12 04:16:00,
2013-10-12 00:21:00,47.8,47.0,29.31,WSW,247,3.0,4.0,96,0.00,,,0.00,Rainwise IP-100,2013-10-12 04:21:00,
2013-10-12 00:26:00,47.8,47.0,29.31,WSW,247,2.0,4.0,97,0.00,,,0.00,Rainwise IP-100,2013-10-12 04:26:00,
2013-10-12 00:31:00,47.8,47.0,29.31,WSW,247,2.0,3.0,97,0.00,,,0.00,Rainwise IP-100,2013-10-12 04:31:00,
2013-10-12 00:36:00,47.8,47.0,29.31,SW,225,2.0,3.0,97,0.00,,,0.00,Rainwise IP-100,2013-10-12 04:36:00,
2013-10-12 00:41:00,48.2,47.0,29.31,SW,225,3.0,4.0,97,0.00,,,0.00,Rainwise IP-100,2013-10-12 04:41:00,
2013-10-12 00:46:00,48.5,48.0,29.31,SW,225,3.0,6.0,97,0.00,,,0.00,Rainwise IP-100,2013-10-12 04:46:00,
2013-10-12 00:51:00,48.4,47.0,29.31,SW,225,2.0,3.0,97,0.00,,,0.00,Rainwise IP-100,2013-10-12 04:51:00,
2013-10-12 00:56:00,48.3,47.0,29.31,WSW,247,2.0,4.0,97,0.00,,,0.00,Rainwise IP-100,2013-10-12 04:56:00,
2013-10-12 01:01:00,48.2,47.0,29.31,WSW,247,1.0,4.0,97,0.00,,,0.00,Rainwise IP-100,2013-10-12 05:01:00,
2013-10-12 01:06:00,47.9,47.0,29.31,WSW,247,2.0,2.0,97,0.00,,,0.00,Rainwise IP-100,2013-10-12 05:06:00,
2013-10-12 01:11:00,47.4,47.0,29.31,WSW,247,2.0,3.0,97,0.00,,,0.00,Rainwise IP-100,2013-10-12 05:11:00,
2013-10-12 01:16:00,47.1,46.0,29.31,WSW,247,3.0,3.0,97,0.00,,,0.00,Rainwise IP-100,2013-10-12 05:16:00,
2013-10-12 01:21:00,46.8,46.0,29.31,WSW,247,3.0,4.0,97,0.00,,,0.00,Rainwise IP-100,2013-10-12 05:21:00,
2013-10-12 01:26:00,46.8,46.0,29.31,WSW,247,2.0,4.0,97,0.00,,,0.00,Rainwise IP-100,2013-10-12 05:26:00,
2013-10-12 01:31:00,46.6,46.0,29.31,WSW,247,2.0,3.0,97,0.00,,,0.00,Rainwise IP-100,2013-10-12 05:31:00,
2013-10-12 01:36:00,46.6,46.0,29.31,WSW,247,2.0,4.0,97,0.00,,,0.00,Rainwise IP-100,2013-10-12 05:36:00,
2013-10-12 01:41:00,47.1,46.0,29.31,SW,225,3.0,3.0,97,0.00,,,0.00,Rainwise IP-100,2013-10-12 05:41:00,
2013-10-12 01:46:00,47.2,46.0,29.31,WSW,247,1.0,3.0,97,0.00,,,0.00,Rainwise IP-100,2013-10-12 05:46:00,
2013-10-12 01:51:00,46.9,46.0,29.31,WSW,247,1.0,3.0,97,0.00,,,0.00,Rainwise IP-100,2013-10-12 05:51:00,
2013-10-12 01:56:00,47.1,46.0,29.31,WSW,247,2.0,3.0,97,0.00,,,0.00,Rainwise IP-100,2013-10-12 05:56:00,
2013-10-12 02:01:00,47.0,46.0,29.31,WSW,247,4.0,4.0,97,0.00,,,0.00,Rainwise IP-100,2013-10-12 06:01:00,
2013-10-12 02:06:00,47.0,46.0,29.31,WSW,247,2.0,4.0,97,0.00,,,0.00,Rainwise IP-100,2013-10-12 06:06:00,
2013-10-12 02:11:00,47.3,46.0,29.31,SW,225,2.0,3.0,97,0.00,,,0.00,Rainwise IP-100,2013-10-12 06:11:00,
2013-10-12 02:16:00,47.7,47.0,29.31,WSW,247,2.0,4.0,97,0.00,,,0.00,Rainwise IP-100,2013-10-12 06:16:00,
2013-10-12 02:21:00,47.7,47.0,29.31,WSW,247,2.0,4.0,97,0.00,,,0.00,Rainwise IP-100,2013-10-12 06:21:00,
2013-10-12 02:26:00,48.1,47.0,29.31,SW,225,2.0,3.0,97,0.00,,,0.00,Rainwise IP-100,2013-10-12 06:26:00,
2013-10-12 02:31:00,47.9,47.0,29.31,SW,225,1.0,4.0,97,0.00,,,0.00,Rainwise IP-100,2013-10-12 06:31:00,
2013-10-12 02:36:00,48.1,47.0,29.31,SW,225,1.0,4.0,97,0.00,,,0.00,Rainwise IP-100,2013-10-12 06:36:00,
2013-10-12 02:41:00,48.3,47.0,29.31,SW,225,2.0,4.0,97,0.00,,,0.00,Rainwise IP-100,2013-10-12 06:41:00,
2013-10-12 02:46:00,48.4,47.0,29.31,SW,225,1.0,3.0,97,0.00,,,0.00,Rainwise IP-100,2013-10-12 06:46:00,
2013-10-12 02:51:00,48.7,48.0,29.31,SW,225,2.0,6.0,97,0.00,,,0.00,Rainwise IP-100,2013-10-12 06:51:00,
2013-10-12 02:56:00,48.5,48.0,29.31,SW,225,2.0,3.0,97,0.00,,,0.00,Rainwise IP-100,2013-10-12 06:56:00,
2013-10-12 03:01:00,48.5,48.0,29.31,SW,225,2.0,4.0,97,0.00,,,0.00,Rainwise IP-100,2013-10-12 07:01:00,
2013-10-12 03:06:00,48.4,47.0,29.31,SW,225,2.0,4.0,97,0.00,,,0.00,Rainwise IP-100,2013-10-12 07:06:00,
2013-10-12 03:11:00,48.6,48.0,29.31,SW,225,1.0,5.0,97,0.00,,,0.00,Rainwise IP-100,2013-10-12 07:11:00,
2013-10-12 03:16:00,48.3,47.0,29.31,WSW,247,1.0,2.0,97,0.00,,,0.00,Rainwise IP-100,2013-10-12 07:16:00,
2013-10-12 03:21:00,47.8,47.0,29.31,SW,225,1.0,2.0,97,0.00,,,0.00,Rainwise IP-100,2013-10-12 07:21:00,
2013-10-12 03:26:00,47.7,47.0,29.31,WSW,247,1.0,2.0,97,0.00,,,0.00,Rainwise IP-100,2013-10-12 07:26:00,
2013-10-12 03:31:00,47.1,46.0,29.31,WSW,247,1.0,2.0,97,0.00,,,0.00,Rainwise IP-100,2013-10-12 07:31:00,
2013-10-12 03:36:00,46.7,46.0,29.31,WSW,247,0.0,2.0,97,0.00,,,0.00,Rainwise IP-100,2013-10-12 07:36:00,
2013-10-12 03:41:00,46.5,46.0,29.31,SW,225,0.0,1.0,97,0.00,,,0.00,Rainwise IP-100,2013-10-12 07:41:00,
2013-10-12 03:46:00,46.1,45.0,29.31,SW,225,0.0,0.0,97,0.00,,,0.00,Rainwise IP-100,2013-10-12 07:46:00,
2013-10-12 03:51:00,46.1,45.0,29.31,SW,225,1.0,0.0,97,0.00,,,0.00,Rainwise IP-100,2013-10-12 07:51:00,
2013-10-12 03:56:00,46.8,46.0,29.31,South,180,1.0,4.0,97,0.00,,,0.00,Rainwise IP-100,2013-10-12 07:56:00,
2013-10-12 04:01:00,47.4,47.0,29.31,SSW,202,1.0,2.0,97,0.00,,,0.00,Rainwise IP-100,2013-10-12 08:01:00,
2013-10-12 04:06:00,47.5,47.0,29.31,South,180,0.0,2.0,97,0.00,,,0.00,Rainwise IP-100,2013-10-12 08:06:00,
2013-10-12 04:11:00,47.2,46.0,29.32,South,180,0.0,0.0,97,0.00,,,0.00,Rainwise IP-100,2013-10-12 08:11:00,
2013-10-12 04:16:00,47.2,46.0,29.32,South,180,0.0,1.0,97,0.00,,,0.00,Rainwise IP-100,2013-10-12 08:16:00,
2013-10-12 04:21:00,47.2,46.0,29.32,South,180,0.0,0.0,97,0.00,,,0.00,Rainwise IP-100,2013-10-12 08:21:00,
2013-10-12 04:26:00,46.8,46.0,29.32,South,180,0.0,0.0,97,0.00,,,0.00,Rainwise IP-100,2013-10-12 08:26:00,
2013-10-12 04:31:00,46.2,45.0,29.32,South,180,0.0,0.0,97,0.00,,,0.00,Rainwise IP-100,2013-10-12 08:31:00,
2013-10-12 04:36:00,45.9,45.0,29.32,South,180,0.0,0.0,97,0.00,,,0.00,Rainwise IP-100,2013-10-12 08:36:00,
2013-10-12 04:41:00,46.3,45.0,29.32,South,180,0.0,0.0,97,0.00,,,0.00,Rainwise IP-100,2013-10-12 08:41:00,
2013-10-12 04:46:00,46.2,45.0,29.32,South,180,0.0,0.0,97,0.00,,,0.00,Rainwise IP-100,2013-10-12 08:46:00,
2013-10-12 04:51:00,45.9,45.0,29.32,South,180,0.0,0.0,97,0.00,,,0.00,Rainwise IP-100,2013-10-12 08:51:00,
2013-10-12 04:56:00,45.9,45.0,29.33,South,180,0.0,0.0,97,0.00,,,0.00,Rainwise IP-100,2013-10-12 08:56:00,
2013-10-12 05:01:00,46.2,45.0,29.33,SW,225,1.0,2.0,97,0.00,,,0.00,Rainwise IP-100,2013-10-12 09:01:00,
2013-10-12 05:06:00,46.3,45.0,29.33,SW,225,0.0,2.0,97,0.00,,,0.00,Rainwise IP-100,2013-10-12 09:06:00,
2013-10-12 05:11:00,46.5,46.0,29.33,SW,225,1.0,2.0,97,0.00,,,0.00,Rainwise IP-100,2013-10-12 09:11:00,
2013-10-12 05:16:00,46.3,45.0,29.33,SW,225,2.0,2.0,97,0.00,,,0.00,Rainwise IP-100,2013-10-12 09:16:00,
2013-10-12 05:21:00,46.5,46.0,29.33,SW,225,2.0,2.0,97,0.00,,,0.00,Rainwise IP-100,2013-10-12 09:21:00,
2013-10-12 05:26:00,46.3,45.0,29.33,SW,225,1.0,2.0,97,0.00,,,0.00,Rainwise IP-100,2013-10-12 09:26:00,
2013-10-12 05:31:00,46.5,46.0,29.33,SW,225,1.0,2.0,97,0.00,,,0.00,Rainwise IP-100,2013-10-12 09:31:00,
2013-10-12 05:36:00,46.3,45.0,29.33,SW,225,2.0,2.0,97,0.00,,,0.00,Rainwise IP-100,2013-10-12 09:36:00,
2013-10-12 05:41:00,46.1,45.0,29.34,WSW,247,1.0,2.0,97,0.00,,,0.00,Rainwise IP-100,2013-10-12 09:41:00,
2013-10-12 05:46:00,45.9,45.0,29.34,WSW,247,0.0,2.0,97,0.00,,,0.00,Rainwise IP-100,2013-10-12 09:46:00,
2013-10-12 05:51:00,46.1,45.0,29.34,SSW,202,2.0,4.0,97,0.00,,,0.00,Rainwise IP-100,2013-10-12 09:51:00,
2013-10-12 05:56:00,46.0,45.0,29.34,South,180,1.0,2.0,97,0.00,,,0.00,Rainwise IP-100,2013-10-12 09:56:00,
2013-10-12 06:01:00,45.9,45.0,29.34,South,180,1.0,2.0,97,0.00,,,0.00,Rainwise IP-100,2013-10-12 10:01:00,
2013-10-12 06:06:00,46.3,45.0,29.35,South,180,2.0,2.0,97,0.00,,,0.00,Rainwise IP-100,2013-10-12 10:06:00,
2013-10-12 06:11:00,46.8,46.0,29.35,SSW,202,2.0,4.0,97,0.00,,,0.00,Rainwise IP-100,2013-10-12 10:11:00,
2013-10-12 06:16:00,47.1,46.0,29.35,SSW,202,3.0,4.0,97,0.00,,,0.00,Rainwise IP-100,2013-10-12 10:16:00,
2013-10-12 06:21:00,47.4,47.0,29.35,SSW,202,2.0,4.0,97,0.00,,,0.00,Rainwise IP-100,2013-10-12 10:21:00,
2013-10-12 06:26:00,47.6,47.0,29.35,South,180,1.0,4.0,97,0.00,,,0.00,Rainwise IP-100,2013-10-12 10:26:00,
2013-10-12 06:31:00,47.5,47.0,29.36,SSW,202,1.0,4.0,97,0.00,,,0.00,Rainwise IP-100,2013-10-12 10:31:00,
2013-10-12 06:36:00,47.5,47.0,29.36,South,180,2.0,4.0,97,0.00,,,0.00,Rainwise IP-100,2013-10-12 10:36:00,
2013-10-12 06:41:00,47.7,47.0,29.36,SSW,202,2.0,6.0,97,0.00,,,0.00,Rainwise IP-100,2013-10-12 10:41:00,
2013-10-12 06:46:00,47.6,47.0,29.36,SSW,202,5.0,7.0,97,0.00,,,0.00,Rainwise IP-100,2013-10-12 10:46:00,
2013-10-12 06:51:00,47.6,47.0,29.36,SSW,202,4.0,6.0,97,0.00,,,0.00,Rainwise IP-100,2013-10-12 10:51:00,
2013-10-12 06:56:00,47.4,47.0,29.36,SSW,202,2.0,6.0,97,0.00,,,0.00,Rainwise IP-100,2013-10-12 10:56:00,
2013-10-12 07:01:00,47.3,46.0,29.36,SSW,202,2.0,4.0,97,0.00,,,0.00,Rainwise IP-100,2013-10-12 11:01:00,
2013-10-12 07:06:00,47.3,46.0,29.37,SSW,202,3.0,4.0,97,0.00,,,0.00,Rainwise IP-100,2013-10-12 11:06:00,
2013-10-12 07:11:00,47.4,47.0,29.37,SW,225,1.0,6.0,97,0.00,,,0.00,Rainwise IP-100,2013-10-12 11:11:00,
2013-10-12 07:16:00,47.3,46.0,29.37,SSW,202,1.0,3.0,97,0.00,,,0.00,Rainwise IP-100,2013-10-12 11:16:00,
2013-10-12 07:21:00,47.5,47.0,29.37,SW,225,1.0,3.0,97,0.00,,,0.00,Rainwise IP-100,2013-10-12 11:21:00,
2013-10-12 07:26:00,47.2,46.0,29.37,SW,225,1.0,2.0,97,0.00,,,0.00,Rainwise IP-100,2013-10-12 11:26:00,
2013-10-12 07:31:00,47.2,46.0,29.37,SW,225,2.0,2.0,97,0.00,,,0.00,Rainwise IP-100,2013-10-12 11:31:00,
2013-10-12 07:36:00,47.2,46.0,29.37,SSW,202,2.0,2.0,97,0.00,,,0.00,Rainwise IP-100,2013-10-12 11:36:00,
2013-10-12 07:41:00,47.4,47.0,29.37,SSW,202,2.0,3.0,97,0.00,,,0.00,Rainwise IP-100,2013-10-12 11:41:00,
2013-10-12 07:46:00,47.5,47.0,29.37,SW,225,2.0,4.0,97,0.00,,,0.00,Rainwise IP-100,2013-10-12 11:46:00,
2013-10-12 07:51:00,47.7,47.0,29.37,West,270,1.0,3.0,97,0.00,,,0.00,Rainwise IP-100,2013-10-12 11:51:00,
2013-10-12 07:56:00,48.1,47.0,29.37,SSW,202,2.0,2.0,97,0.00,,,0.00,Rainwise IP-100,2013-10-12 11:56:00,
2013-10-12 08:01:00,48.5,48.0,29.37,SSW,202,4.0,5.0,97,0.00,,,0.00,Rainwise IP-100,2013-10-12 12:01:00,
2013-10-12 08:07:00,48.8,48.0,29.37,SSW,202,2.0,4.0,97,0.00,,,0.00,Rainwise IP-100,2013-10-12 12:07:00,
2013-10-12 08:12:00,49.4,48.0,29.37,SW,225,1.0,2.0,97,0.00,,,0.00,Rainwise IP-100,2013-10-12 12:12:00,
2013-10-12 08:17:00,49.7,49.0,29.38,SW,225,2.0,2.0,97,0.00,,,0.00,Rainwise IP-100,2013-10-12 12:17:00,
2013-10-12 08:22:00,50.2,49.0,29.38,SSE,157,0.0,2.0,97,0.00,,,0.00,Rainwise IP-100,2013-10-12 12:22:00,
2013-10-12 08:27:00,50.6,50.0,29.38,SE,135,3.0,3.0,97,0.00,,,0.00,Rainwise IP-100,2013-10-12 12:27:00,
2013-10-12 08:32:00,51.0,50.0,29.38,SE,135,1.0,3.0,97,0.00,,,0.00,Rainwise IP-100,2013-10-12 12:32:00,
2013-10-12 08:37:00,51.6,51.0,29.38,SE,135,2.0,3.0,97,0.00,,,0.00,Rainwise IP-100,2013-10-12 12:37:00,
2013-10-12 08:42:00,51.8,51.0,29.39,SSE,157,3.0,4.0,97,0.00,,,0.00,Rainwise IP-100,2013-10-12 12:42:00,
2013-10-12 08:47:00,52.1,51.0,29.39,South,180,3.0,5.0,97,0.00,,,0.00,Rainwise IP-100,2013-10-12 12:47:00,
2013-10-12 08:52:00,52.5,52.0,29.39,SSE,157,2.0,5.0,97,0.00,,,0.00,Rainwise IP-100,2013-10-12 12:52:00,
2013-10-12 08:57:00,53.1,52.0,29.39,South,180,3.0,4.0,97,0.00,,,0.00,Rainwise IP-100,2013-10-12 12:57:00,
2013-10-12 09:02:00,53.6,53.0,29.39,SE,135,1.0,4.0,97,0.00,,,0.00,Rainwise IP-100,2013-10-12 13:02:00,
2013-10-12 09:07:00,54.4,53.0,29.39,SSE,157,1.0,2.0,95,0.00,,,0.00,Rainwise IP-100,2013-10-12 13:07:00,
2013-10-12 09:12:00,55.3,54.0,29.40,SSE,157,0.0,2.0,95,0.00,,,0.00,Rainwise IP-100,2013-10-12 13:12:00,
2013-10-12 09:17:00,56.3,54.0,29.40,SE,135,2.0,2.0,95,0.00,,,0.00,Rainwise IP-100,2013-10-12 13:17:00,
2013-10-12 09:22:00,56.6,54.0,29.40,SE,135,2.0,2.0,92,0.00,,,0.00,Rainwise IP-100,2013-10-12 13:22:00,
2013-10-12 09:27:00,56.6,53.0,29.41,SE,135,1.0,2.0,90,0.00,,,0.00,Rainwise IP-100,2013-10-12 13:27:00,
2013-10-12 09:32:00,56.6,53.0,29.41,ESE,112,2.0,3.0,90,0.00,,,0.00,Rainwise IP-100,2013-10-12 13:32:00,
2013-10-12 09:38:00,57.1,54.0,29.41,ESE,112,2.0,4.0,89,0.00,,,0.00,Rainwise IP-100,2013-10-12 13:38:00,
2013-10-12 09:43:00,57.9,54.0,29.41,SE,135,1.0,2.0,88,0.00,,,0.00,Rainwise IP-100,2013-10-12 13:43:00,
2013-10-12 09:48:00,58.3,54.0,29.41,ENE,67,0.0,2.0,85,0.00,,,0.00,Rainwise IP-100,2013-10-12 13:48:00,
2013-10-12 09:53:00,59.4,55.0,29.41,SE,135,2.0,2.0,86,0.00,,,0.00,Rainwise IP-100,2013-10-12 13:53:00,
2013-10-12 09:58:00,59.9,54.0,29.41,ESE,112,3.0,3.0,81,0.00,,,0.00,Rainwise IP-100,2013-10-12 13:58:00,
2013-10-12 10:03:00,59.9,54.0,29.42,ENE,67,2.0,4.0,82,0.00,,,0.00,Rainwise IP-100,2013-10-12 14:03:00,
2013-10-12 10:08:00,59.9,54.0,29.42,NE,45,3.0,3.0,82,0.00,,,0.00,Rainwise IP-100,2013-10-12 14:08:00,
2013-10-12 10:13:00,59.6,53.0,29.42,NNE,22,4.0,4.0,80,0.00,,,0.00,Rainwise IP-100,2013-10-12 14:13:00,
2013-10-12 10:18:00,58.9,53.0,29.42,NE,45,1.0,6.0,82,0.00,,,0.00,Rainwise IP-100,2013-10-12 14:18:00,
2013-10-12 10:23:00,59.3,53.0,29.42,NE,45,1.0,4.0,80,0.00,,,0.00,Rainwise IP-100,2013-10-12 14:23:00,
2013-10-12 10:28:00,59.9,54.0,29.42,North,360,2.0,2.0,83,0.00,,,0.00,Rainwise IP-100,2013-10-12 14:28:00,
2013-10-12 10:33:00,60.4,53.0,29.42,North,360,2.0,4.0,77,0.00,,,0.00,Rainwise IP-100,2013-10-12 14:33:00,
2013-10-12 10:38:00,61.0,53.0,29.42,NNE,22,1.0,3.0,75,0.00,,,0.00,Rainwise IP-100,2013-10-12 14:38:00,
2013-10-12 10:43:00,61.1,54.0,29.42,SE,135,2.0,3.0,77,0.00,,,0.00,Rainwise IP-100,2013-10-12 14:43:00,
2013-10-12 10:48:00,61.6,53.0,29.43,NE,45,1.0,2.0,75,0.00,,,0.00,Rainwise IP-100,2013-10-12 14:48:00,
2013-10-12 10:53:00,61.2,53.0,29.43,NNE,22,1.0,4.0,75,0.00,,,0.00,Rainwise IP-100,2013-10-12 14:53:00,
2013-10-12 10:58:00,62.0,54.0,29.43,ESE,112,2.0,4.0,75,0.00,,,0.00,Rainwise IP-100,2013-10-12 14:58:00,
2013-10-12 11:03:00,61.9,53.0,29.43,NE,45,1.0,2.0,74,0.00,,,0.00,Rainwise IP-100,2013-10-12 15:03:00,
2013-10-12 11:08:00,62.4,52.0,29.43,North,360,2.0,2.0,69,0.00,,,0.00,Rainwise IP-100,2013-10-12 15:08:00,
2013-10-12 11:13:00,63.2,50.0,29.43,NE,45,0.0,2.0,64,0.00,,,0.00,Rainwise IP-100,2013-10-12 15:13:00,
2013-10-12 11:18:00,63.7,50.0,29.43,ENE,67,1.0,2.0,62,0.00,,,0.00,Rainwise IP-100,2013-10-12 15:18:00,
2013-10-12 11:23:00,63.9,51.0,29.42,NE,45,1.0,3.0,64,0.00,,,0.00,Rainwise IP-100,2013-10-12 15:23:00,
2013-10-12 11:28:00,64.5,53.0,29.42,NE,45,0.0,2.0,66,0.00,,,0.00,Rainwise IP-100,2013-10-12 15:28:00,
2013-10-12 11:33:00,64.8,51.0,29.43,SE,135,1.0,3.0,62,0.00,,,0.00,Rainwise IP-100,2013-10-12 15:33:00,
2013-10-12 11:38:00,64.9,51.0,29.42,ENE,67,2.0,3.0,62,0.00,,,0.00,Rainwise IP-100,2013-10-12 15:38:00,
2013-10-12 11:43:00,64.9,50.0,29.42,NNW,337,1.0,2.0,60,0.00,,,0.00,Rainwise IP-100,2013-10-12 15:43:00,
2013-10-12 11:48:00,65.9,50.0,29.42,SSE,157,1.0,2.0,58,0.00,,,0.00,Rainwise IP-100,2013-10-12 15:48:00,
2013-10-12 11:53:00,65.9,49.0,29.42,SE,135,1.0,3.0,55,0.00,,,0.00,Rainwise IP-100,2013-10-12 15:53:00,
2013-10-12 11:58:00,66.5,50.0,29.42,East,90,2.0,2.0,56,0.00,,,0.00,Rainwise IP-100,2013-10-12 15:58:00,
2013-10-12 12:03:00,67.0,50.0,29.43,NE,45,1.0,2.0,55,0.00,,,0.00,Rainwise IP-100,2013-10-12 16:03:00,
2013-10-12 12:08:00,67.1,50.0,29.43,NE,45,0.0,3.0,54,0.00,,,0.00,Rainwise IP-100,2013-10-12 16:08:00,
2013-10-12 12:13:00,67.3,48.0,29.43,NE,45,0.0,4.0,51,0.00,,,0.00,Rainwise IP-100,2013-10-12 16:13:00,
2013-10-12 12:18:00,67.4,50.0,29.43,NE,45,1.0,4.0,55,0.00,,,0.00,Rainwise IP-100,2013-10-12 16:18:00,
2013-10-12 12:23:00,68.2,50.0,29.43,East,90,2.0,3.0,52,0.00,,,0.00,Rainwise IP-100,2013-10-12 16:23:00,
2013-10-12 12:28:00,68.9,50.0,29.43,ENE,67,2.0,3.0,50,0.00,,,0.00,Rainwise IP-100,2013-10-12 16:28:00,
2013-10-12 12:33:00,69.3,49.0,29.42,NE,45,2.0,2.0,48,0.00,,,0.00,Rainwise IP-100,2013-10-12 16:33:00,
2013-10-12 12:38:00,69.2,48.0,29.42,NE,45,2.0,4.0,47,0.00,,,0.00,Rainwise IP-100,2013-10-12 16:38:00,
2013-10-12 12:43:00,68.7,51.0,29.42,NE,45,2.0,4.0,54,0.00,,,0.00,Rainwise IP-100,2013-10-12 16:43:00,
2013-10-12 12:48:00,67.9,49.0,29.42,NE,45,2.0,3.0,50,0.00,,,0.00,Rainwise IP-100,2013-10-12 16:48:00,
2013-10-12 12:53:00,67.6,50.0,29.41,NNE,22,2.0,3.0,53,0.00,,,0.00,Rainwise IP-100,2013-10-12 16:53:00,
2013-10-12 12:58:00,67.9,50.0,29.41,NNE,22,2.0,3.0,52,0.00,,,0.00,Rainwise IP-100,2013-10-12 16:58:00,
2013-10-12 13:03:00,68.7,53.0,29.41,NE,45,0.0,2.0,58,0.00,,,0.00,Rainwise IP-100,2013-10-12 17:03:00,
2013-10-12 13:08:00,69.5,52.0,29.41,East,90,0.0,3.0,53,0.00,,,0.00,Rainwise IP-100,2013-10-12 17:08:00,
2013-10-12 13:13:00,70.0,51.0,29.41,NE,45,2.0,2.0,51,0.00,,,0.00,Rainwise IP-100,2013-10-12 17:13:00,
2013-10-12 13:18:00,69.8,50.0,29.40,NE,45,1.0,2.0,49,0.00,,,0.00,Rainwise IP-100,2013-10-12 17:18:00,
2013-10-12 13:23:00,70.4,53.0,29.40,NE,45,1.0,2.0,53,0.00,,,0.00,Rainwise IP-100,2013-10-12 17:23:00,
2013-10-12 13:28:00,70.3,48.0,29.40,NE,45,1.0,3.0,46,0.00,,,0.00,Rainwise IP-100,2013-10-12 17:28:00,
2013-10-12 13:33:00,70.9,50.0,29.40,ENE,67,2.0,2.0,48,0.00,,,0.00,Rainwise IP-100,2013-10-12 17:33:00,
2013-10-12 13:38:00,70.9,46.0,29.40,NE,45,2.0,2.0,41,0.00,,,0.00,Rainwise IP-100,2013-10-12 17:38:00,
2013-10-12 13:43:00,71.4,45.0,29.40,NE,45,0.0,3.0,39,0.00,,,0.00,Rainwise IP-100,2013-10-12 17:43:00,
2013-10-12 13:48:00,71.5,46.0,29.40,NE,45,1.0,2.0,40,0.00,,,0.00,Rainwise IP-100,2013-10-12 17:48:00,
2013-10-12 13:53:00,71.6,42.0,29.40,ENE,67,2.0,2.0,35,0.00,,,0.00,Rainwise IP-100,2013-10-12 17:53:00,
2013-10-12 13:58:00,71.6,42.0,29.40,ENE,67,2.0,3.0,35,0.00,,,0.00,Rainwise IP-100,2013-10-12 17:58:00,
2013-10-12 14:03:00,71.6,45.0,29.40,ENE,67,1.0,2.0,39,0.00,,,0.00,Rainwise IP-100,2013-10-12 18:03:00,
2013-10-12 14:08:00,71.4,44.0,29.40,NNE,22,2.0,3.0,38,0.00,,,0.00,Rainwise IP-100,2013-10-12 18:08:00,
2013-10-12 14:13:00,71.4,41.0,29.40,ENE,67,1.0,4.0,34,0.00,,,0.00,Rainwise IP-100,2013-10-12 18:13:00,
2013-10-12 14:18:00,71.3,38.0,29.40,NE,45,1.0,4.0,30,0.00,,,0.00,Rainwise IP-100,2013-10-12 18:18:00,
2013-10-12 14:23:00,71.9,36.0,29.40,NE,45,2.0,3.0,27,0.00,,,0.00,Rainwise IP-100,2013-10-12 18:23:00,
2013-10-12 14:28:00,72.6,38.0,29.40,NNE,22,2.0,7.0,28,0.00,,,0.00,Rainwise IP-100,2013-10-12 18:28:00,
2013-10-12 14:33:00,73.2,36.0,29.40,SE,135,2.0,4.0,25,0.00,,,0.00,Rainwise IP-100,2013-10-12 18:33:00,
2013-10-12 14:38:00,73.5,41.0,29.39,ENE,67,0.0,4.0,31,0.00,,,0.00,Rainwise IP-100,2013-10-12 18:38:00,
2013-10-12 14:43:00,73.3,41.0,29.40,NE,45,2.0,6.0,31,0.00,,,0.00,Rainwise IP-100,2013-10-12 18:43:00,
2013-10-12 14:48:00,73.4,40.0,29.39,North,360,2.0,5.0,30,0.00,,,0.00,Rainwise IP-100,2013-10-12 18:48:00,
2013-10-12 14:53:00,73.7,39.0,29.39,North,360,1.0,3.0,28,0.00,,,0.00,Rainwise IP-100,2013-10-12 18:53:00,
2013-10-12 14:58:00,74.6,42.0,29.39,North,360,0.0,2.0,31,0.00,,,0.00,Rainwise IP-100,2013-10-12 18:58:00,
2013-10-12 15:03:00,74.9,37.0,29.40,SE,135,0.0,2.0,25,0.00,,,0.00,Rainwise IP-100,2013-10-12 19:03:00,
2013-10-12 15:08:00,74.6,37.0,29.40,SE,135,1.0,4.0,25,0.00,,,0.00,Rainwise IP-100,2013-10-12 19:08:00,
2013-10-12 15:13:00,74.3,37.0,29.40,SE,135,2.0,4.0,25,0.00,,,0.00,Rainwise IP-100,2013-10-12 19:13:00,
2013-10-12 15:18:00,74.7,37.0,29.40,South,180,1.0,4.0,25,0.00,,,0.00,Rainwise IP-100,2013-10-12 19:18:00,
2013-10-12 15:23:00,74.3,37.0,29.39,ENE,67,2.0,3.0,26,0.00,,,0.00,Rainwise IP-100,2013-10-12 19:23:00,
2013-10-12 15:28:00,74.7,39.0,29.40,SE,135,1.0,3.0,28,0.00,,,0.00,Rainwise IP-100,2013-10-12 19:28:00,
2013-10-12 15:33:00,74.9,41.0,29.40,SE,135,2.0,4.0,29,0.00,,,0.00,Rainwise IP-100,2013-10-12 19:33:00,
2013-10-12 15:38:00,74.9,37.0,29.40,SSE,157,2.0,2.0,25,0.00,,,0.00,Rainwise IP-100,2013-10-12 19:38:00,
2013-10-12 15:43:00,74.8,38.0,29.40,SE,135,2.0,2.0,26,0.00,,,0.00,Rainwise IP-100,2013-10-12 19:43:00,
2013-10-12 15:48:00,74.7,37.0,29.39,SE,135,3.0,4.0,25,0.00,,,0.00,Rainwise IP-100,2013-10-12 19:48:00,
2013-10-12 15:53:00,74.6,37.0,29.40,SE,135,2.0,4.0,25,0.00,,,0.00,Rainwise IP-100,2013-10-12 19:53:00,
2013-10-12 15:58:00,74.8,38.0,29.40,SE,135,0.0,4.0,27,0.00,,,0.00,Rainwise IP-100,2013-10-12 19:58:00,
2013-10-12 16:03:00,74.5,38.0,29.39,NE,45,2.0,2.0,26,0.00,,,0.00,Rainwise IP-100,2013-10-12 20:03:00,
2013-10-12 16:08:00,75.0,41.0,29.40,ESE,112,0.0,2.0,29,0.00,,,0.00,Rainwise IP-100,2013-10-12 20:08:00,
2013-10-12 16:13:00,74.8,40.0,29.39,ENE,67,2.0,3.0,29,0.00,,,0.00,Rainwise IP-100,2013-10-12 20:13:00,
2013-10-12 16:18:00,74.8,41.0,29.40,East,90,2.0,2.0,30,0.00,,,0.00,Rainwise IP-100,2013-10-12 20:18:00,
2013-10-12 16:23:00,74.8,38.0,29.39,East,90,0.0,2.0,27,0.00,,,0.00,Rainwise IP-100,2013-10-12 20:23:00,
2013-10-12 16:28:00,75.1,41.0,29.40,ESE,112,0.0,2.0,29,0.00,,,0.00,Rainwise IP-100,2013-10-12 20:28:00,
2013-10-12 16:33:00,75.5,43.0,29.39,ESE,112,2.0,2.0,32,0.00,,,0.00,Rainwise IP-100,2013-10-12 20:33:00,
2013-10-12 16:38:00,75.4,42.0,29.39,SE,135,1.0,2.0,30,0.00,,,0.00,Rainwise IP-100,2013-10-12 20:38:00,
2013-10-12 16:43:00,75.5,38.0,29.40,SE,135,2.0,2.0,26,0.00,,,0.00,Rainwise IP-100,2013-10-12 20:43:00,
2013-10-12 16:48:00,75.2,42.0,29.39,SE,135,0.0,2.0,31,0.00,,,0.00,Rainwise IP-100,2013-10-12 20:48:00,
2013-10-12 16:53:00,74.6,38.0,29.39,SE,135,2.0,4.0,27,0.00,,,0.00,Rainwise IP-100,2013-10-12 20:53:00,
2013-10-12 16:58:00,74.3,40.0,29.40,SE,135,0.0,3.0,29,0.00,,,0.00,Rainwise IP-100,2013-10-12 20:58:00,
2013-10-12 17:03:00,74.1,39.0,29.39,SE,135,2.0,2.0,28,0.00,,,0.00,Rainwise IP-100,2013-10-12 21:03:00,
2013-10-12 17:08:00,73.9,41.0,29.40,SE,135,0.0,4.0,31,0.00,,,0.00,Rainwise IP-100,2013-10-12 21:08:00,
2013-10-12 17:13:00,73.7,39.0,29.40,SE,135,1.0,4.0,29,0.00,,,0.00,Rainwise IP-100,2013-10-12 21:13:00,
2013-10-12 17:18:00,73.4,40.0,29.40,SE,135,2.0,2.0,30,0.00,,,0.00,Rainwise IP-100,2013-10-12 21:18:00,
2013-10-12 17:23:00,73.5,42.0,29.40,SE,135,0.0,2.0,32,0.00,,,0.00,Rainwise IP-100,2013-10-12 21:23:00,
2013-10-12 17:28:00,73.8,41.0,29.40,SSE,157,1.0,2.0,31,0.00,,,0.00,Rainwise IP-100,2013-10-12 21:28:00,
2013-10-12 17:33:00,73.6,40.0,29.40,SSE,157,1.0,2.0,30,0.00,,,0.00,Rainwise IP-100,2013-10-12 21:33:00,
2013-10-12 17:38:00,73.6,41.0,29.40,SSE,157,1.0,2.0,31,0.00,,,0.00,Rainwise IP-100,2013-10-12 21:38:00,
2013-10-12 17:43:00,73.1,40.0,29.39,SSE,157,0.0,2.0,31,0.00,,,0.00,Rainwise IP-100,2013-10-12 21:43:00,
2013-10-12 17:48:00,72.3,44.0,29.40,SSW,202,1.0,2.0,36,0.00,,,0.00,Rainwise IP-100,2013-10-12 21:48:00,
2013-10-12 17:53:00,71.7,42.0,29.39,SSW,202,2.0,2.0,34,0.00,,,0.00,Rainwise IP-100,2013-10-12 21:53:00,
2013-10-12 17:58:00,71.1,42.0,29.39,SW,225,1.0,2.0,36,0.00,,,0.00,Rainwise IP-100,2013-10-12 21:58:00,
2013-10-12 18:03:00,70.3,42.0,29.39,SW,225,1.0,2.0,37,0.00,,,0.00,Rainwise IP-100,2013-10-12 22:03:00,
2013-10-12 18:08:00,68.9,42.0,29.39,SW,225,1.0,2.0,38,0.00,,,0.00,Rainwise IP-100,2013-10-12 22:08:00,
2013-10-12 18:13:00,67.8,42.0,29.39,SW,225,2.0,2.0,40,0.00,,,0.00,Rainwise IP-100,2013-10-12 22:13:00,
2013-10-12 18:18:00,67.1,42.0,29.39,SW,225,2.0,3.0,40,0.00,,,0.00,Rainwise IP-100,2013-10-12 22:18:00,
2013-10-12 18:23:00,66.1,43.0,29.39,SW,225,2.0,3.0,43,0.00,,,0.00,Rainwise IP-100,2013-10-12 22:23:00,
2013-10-12 18:28:00,64.9,44.0,29.38,WSW,247,3.0,4.0,47,0.00,,,0.00,Rainwise IP-100,2013-10-12 22:28:00,
2013-10-12 18:33:00,63.5,45.0,29.38,WSW,247,3.0,4.0,51,0.00,,,0.00,Rainwise IP-100,2013-10-12 22:33:00,
2013-10-12 18:38:00,62.4,45.0,29.38,WSW,247,3.0,4.0,53,0.00,,,0.00,Rainwise IP-100,2013-10-12 22:38:00,
2013-10-12 18:43:00,62.2,44.0,29.38,WSW,247,4.0,4.0,52,0.00,,,0.00,Rainwise IP-100,2013-10-12 22:43:00,
2013-10-12 18:48:00,62.4,44.0,29.37,WSW,247,4.0,4.0,50,0.00,,,0.00,Rainwise IP-100,2013-10-12 22:48:00,
2013-10-12 18:53:00,62.6,43.0,29.37,WSW,247,2.0,4.0,49,0.00,,,0.00,Rainwise IP-100,2013-10-12 22:53:00,
2013-10-12 18:58:00,62.6,44.0,29.37,WSW,247,3.0,4.0,50,0.00,,,0.00,Rainwise IP-100,2013-10-12 22:58:00,
2013-10-12 19:03:00,62.5,44.0,29.37,WSW,247,3.0,4.0,50,0.00,,,0.00,Rainwise IP-100,2013-10-12 23:03:00,
2013-10-12 19:08:00,61.2,45.0,29.37,WSW,247,3.0,4.0,55,0.00,,,0.00,Rainwise IP-100,2013-10-12 23:08:00,
2013-10-12 19:14:00,60.3,44.0,29.37,WSW,247,3.0,4.0,56,0.00,,,0.00,Rainwise IP-100,2013-10-12 23:14:00,
2013-10-12 19:19:00,60.6,44.0,29.37,WSW,247,3.0,4.0,54,0.00,,,0.00,Rainwise IP-100,2013-10-12 23:19:00,
2013-10-12 19:24:00,60.9,44.0,29.37,WSW,247,4.0,4.0,53,0.00,,,0.00,Rainwise IP-100,2013-10-12 23:24:00,
2013-10-12 19:29:00,60.9,44.0,29.37,WSW,247,4.0,4.0,53,0.00,,,0.00,Rainwise IP-100,2013-10-12 23:29:00,
2013-10-12 19:34:00,60.5,45.0,29.37,WSW,247,3.0,4.0,56,0.00,,,0.00,Rainwise IP-100,2013-10-12 23:34:00,
2013-10-12 19:39:00,60.5,44.0,29.37,WSW,247,4.0,4.0,54,0.00,,,0.00,Rainwise IP-100,2013-10-12 23:39:00,
2013-10-12 19:44:00,60.7,44.0,29.37,WSW,247,2.0,4.0,55,0.00,,,0.00,Rainwise IP-100,2013-10-12 23:44:00,
2013-10-12 19:49:00,60.8,44.0,29.38,SW,225,1.0,4.0,55,0.00,,,0.00,Rainwise IP-100,2013-10-12 23:49:00,
2013-10-12 19:54:00,60.6,44.0,29.38,SW,225,2.0,3.0,55,0.00,,,0.00,Rainwise IP-100,2013-10-12 23:54:00,
2013-10-12 19:59:00,60.6,44.0,29.38,SW,225,2.0,2.0,55,0.00,,,0.00,Rainwise IP-100,2013-10-12 23:59:00,
2013-10-12 20:04:00,61.2,43.0,29.37,SW,225,3.0,3.0,52,0.00,,,0.00,Rainwise IP-100,2013-10-13 00:04:00,
2013-10-12 20:09:00,61.4,43.0,29.37,SW,225,1.0,3.0,51,0.00,,,0.00,Rainwise IP-100,2013-10-13 00:09:00,
2013-10-12 20:14:00,61.1,44.0,29.38,SSW,202,1.0,3.0,53,0.00,,,0.00,Rainwise IP-100,2013-10-13 00:14:00,
2013-10-12 20:19:00,60.6,44.0,29.38,SSW,202,1.0,2.0,55,0.00,,,0.00,Rainwise IP-100,2013-10-13 00:19:00,
2013-10-12 20:24:00,60.9,43.0,29.38,SSW,202,2.0,2.0,52,0.00,,,0.00,Rainwise IP-100,2013-10-13 00:24:00,
2013-10-12 20:29:00,61.4,44.0,29.38,SSW,202,1.0,2.0,52,0.00,,,0.00,Rainwise IP-100,2013-10-13 00:29:00,
2013-10-12 20:34:00,61.4,43.0,29.38,SSW,202,1.0,2.0,51,0.00,,,0.00,Rainwise IP-100,2013-10-13 00:34:00,
2013-10-12 20:39:00,61.5,43.0,29.38,SSW,202,2.0,2.0,51,0.00,,,0.00,Rainwise IP-100,2013-10-13 00:39:00,
2013-10-12 20:44:00,61.6,43.0,29.38,South,180,2.0,2.0,51,0.00,,,0.00,Rainwise IP-100,2013-10-13 00:44:00,
2013-10-12 20:49:00,61.4,44.0,29.38,South,180,1.0,2.0,52,0.00,,,0.00,Rainwise IP-100,2013-10-13 00:49:00,
2013-10-12 20:54:00,60.9,44.0,29.38,South,180,1.0,2.0,53,0.00,,,0.00,Rainwise IP-100,2013-10-13 00:54:00,
2013-10-12 20:59:00,60.7,44.0,29.39,SSE,157,1.0,2.0,54,0.00,,,0.00,Rainwise IP-100,2013-10-13 00:59:00,
2013-10-12 21:04:00,60.4,44.0,29.39,South,180,0.0,2.0,54,0.00,,,0.00,Rainwise IP-100,2013-10-13 01:04:00,
2013-10-12 21:09:00,60.4,43.0,29.38,SW,225,0.0,2.0,53,0.00,,,0.00,Rainwise IP-100,2013-10-13 01:09:00,
2013-10-12 21:14:00,59.8,44.0,29.39,WSW,247,1.0,2.0,57,0.00,,,0.00,Rainwise IP-100,2013-10-13 01:14:00,
2013-10-12 21:19:00,58.7,46.0,29.39,West,270,2.0,2.0,61,0.00,,,0.00,Rainwise IP-100,2013-10-13 01:19:00,
2013-10-12 21:24:00,57.9,44.0,29.39,WNW,292,2.0,3.0,59,0.00,,,0.00,Rainwise IP-100,2013-10-13 01:24:00,
2013-10-12 21:29:00,57.9,43.0,29.39,WNW,292,1.0,3.0,58,0.00,,,0.00,Rainwise IP-100,2013-10-13 01:29:00,
2013-10-12 21:34:00,57.2,46.0,29.39,NW,315,0.0,3.0,66,0.00,,,0.00,Rainwise IP-100,2013-10-13 01:34:00,
2013-10-12 21:39:00,56.6,44.0,29.39,WNW,292,3.0,3.0,63,0.00,,,0.00,Rainwise IP-100,2013-10-13 01:39:00,
2013-10-12 21:44:00,56.3,46.0,29.39,West,270,1.0,4.0,69,0.00,,,0.00,Rainwise IP-100,2013-10-13 01:44:00,
2013-10-12 21:49:00,55.6,47.0,29.39,West,270,1.0,2.0,71,0.00,,,0.00,Rainwise IP-100,2013-10-13 01:49:00,
2013-10-12 21:54:00,55.3,47.0,29.39,West,270,2.0,3.0,72,0.00,,,0.00,Rainwise IP-100,2013-10-13 01:54:00,
2013-10-12 21:57:00,55.6,47.0,29.39,WSW,247,3.0,3.0,70,0.00,,,0.00,Rainwise IP-100,2013-10-13 01:57:00,
2013-10-12 22:02:00,56.3,45.0,29.39,West,270,1.0,3.0,67,0.00,,,0.00,Rainwise IP-100,2013-10-13 02:02:00,
2013-10-12 22:07:00,56.2,46.0,29.39,West,270,2.0,4.0,69,0.00,,,0.00,Rainwise IP-100,2013-10-13 02:07:00,
2013-10-12 22:12:00,55.6,47.0,29.39,WSW,247,1.0,3.0,70,0.00,,,0.00,Rainwise IP-100,2013-10-13 02:12:00,
2013-10-12 22:17:00,57.4,46.0,29.39,WSW,247,3.0,3.0,64,0.00,,,0.00,Rainwise IP-100,2013-10-13 02:17:00,
2013-10-12 22:22:00,57.9,46.0,29.40,WSW,247,1.0,3.0,64,0.00,,,0.00,Rainwise IP-100,2013-10-13 02:22:00,
2013-10-12 22:27:00,58.5,47.0,29.40,SW,225,1.0,3.0,63,0.00,,,0.00,Rainwise IP-100,2013-10-13 02:27:00,
2013-10-12 22:32:00,59.5,45.0,29.40,SW,225,2.0,2.0,59,0.00,,,0.00,Rainwise IP-100,2013-10-13 02:32:00,
2013-10-12 22:37:00,59.7,46.0,29.40,SW,225,1.0,3.0,60,0.00,,,0.00,Rainwise IP-100,2013-10-13 02:37:00,
2013-10-12 22:42:00,59.9,46.0,29.40,SW,225,2.0,4.0,60,0.00,,,0.00,Rainwise IP-100,2013-10-13 02:42:00,
2013-10-12 22:47:00,59.9,46.0,29.41,SW,225,1.0,4.0,60,0.00,,,0.00,Rainwise IP-100,2013-10-13 02:47:00,
2013-10-12 22:52:00,59.8,46.0,29.41,SW,225,2.0,3.0,61,0.00,,,0.00,Rainwise IP-100,2013-10-13 02:52:00,
2013-10-12 22:57:00,59.7,46.0,29.41,SW,225,1.0,3.0,61,0.00,,,0.00,Rainwise IP-100,2013-10-13 02:57:00,
2013-10-12 23:02:00,60.3,46.0,29.41,SW,225,2.0,4.0,59,0.00,,,0.00,Rainwise IP-100,2013-10-13 03:02:00,
2013-10-12 23:07:00,60.2,46.0,29.41,SW,225,2.0,2.0,60,0.00,,,0.00,Rainwise IP-100,2013-10-13 03:07:00,
2013-10-12 23:12:00,60.1,46.0,29.41,SW,225,2.0,3.0,60,0.00,,,0.00,Rainwise IP-100,2013-10-13 03:12:00,
2013-10-12 23:17:00,59.9,47.0,29.42,SW,225,0.0,4.0,61,0.00,,,0.00,Rainwise IP-100,2013-10-13 03:17:00,
2013-10-12 23:22:00,59.8,46.0,29.42,SW,225,0.0,2.0,61,0.00,,,0.00,Rainwise IP-100,2013-10-13 03:22:00,
2013-10-12 23:27:00,59.2,47.0,29.42,SSW,202,0.0,0.0,64,0.00,,,0.00,Rainwise IP-100,2013-10-13 03:27:00,
2013-10-12 23:32:00,58.4,47.0,29.43,SSW,202,0.0,0.0,66,0.00,,,0.00,Rainwise IP-100,2013-10-13 03:32:00,
2013-10-12 23:37:00,58.1,47.0,29.43,SSW,202,0.0,0.0,66,0.00,,,0.00,Rainwise IP-100,2013-10-13 03:37:00,
2013-10-12 23:42:00,58.4,47.0,29.43,SSW,202,0.0,0.0,65,0.00,,,0.00,Rainwise IP-100,2013-10-13 03:42:00,
2013-10-12 23:47:00,58.6,47.0,29.43,SW,225,1.0,0.0,65,0.00,,,0.00,Rainwise IP-100,2013-10-13 03:47:00,
2013-10-12 23:52:00,57.7,47.0,29.43,West,270,0.0,3.0,66,0.00,,,0.00,Rainwise IP-100,2013-10-13 03:52:00,
2013-10-12 23:57:00,57.1,47.0,29.43,WSW,247,0.0,2.0,68,0.00,,,0.00,Rainwise IP-100,2013-10-13 03:57:00,